Temperature
16 16 16 16 16 16 16 16 16 16 17 17 17 17 17 17 17 17 17 17 17 17 17 17 17 17 17 17 18 18 18 18 18 18 18 18 18 18 18 18 18 18 18
16 16 16 16 16 16 16 16 16 16 16 16 16 16 16 16 16 17 17 17 17 17 17 17 17 17 17 17 17 18 18 18 18 18 18 18 18 18 18 18 18 18 18
16 16 16 16 16 16 16 16 16 16 16 16 16 16 16 16 16 16 16 16 17 17 17 17 17 17 17 17 17 17 17 18 18 18 18 17 17 18 18 18 18 18 18
16 16 16 16 16 16 16 16 16 16 16 16 16 16 16 16 16 16 16 16 16 16 16 17 17 17 17 17 17 17 17 17 18 17 17 17 17 18 18 18 18 18 18
16 16 16 16 16 16 16 16 16 16 16 16 16 16 16 16 16 16 16 16 16 16 16 16 17 17 17 17 17 17 17 17 17 17 17 17 17 17 18 18 18 18 18
16 16 16 16 16 16 16 16 16 15 15 16 15 15 16 16 16 16 16 16 16 16 16 16 16 17 17 17 17 17 17 17 17 16 17 17 17 17 18 18 18 18 18
16 16 16 16 16 16 16 16 15 15 15 15 15 16 16 16 16 16 16 16 16 16 16 16 16 16 17 17 17 17 17 17 16 16 16 17 17 17 17 17 17 18 18
16 16 16 16 16 16 16 16 16 15 15 15 15 15 15 15 15 15 15 16 16 16 16 16 16 16 16 17 17 17 17 16 16 16 16 17 17 17 17 17 17 17 17
16 16 16 16 16 16 16 16 15 15 15 15 15 15 15 15 15 15 15 16 16 16 16 16 16 16 16 16 17 17 17 16 16 16 16 16 17 17 17 17 17 17 17
16 16 16 16 16 16 15 15 15 15 15 15 15 15 15 15 15 15 15 15 16 16 16 16 16 16 16 16 16 17 16 16 16 16 16 16 17 17 17 17 17 17 17
16 16 16 16 16 16 16 15 15 15 15 15 15 15 15 15 15 15 15 15 15 16 16 16 16 16 16 16 16 16 16 16 16 16 16 16 16 16 17 17 17 17 17
17 17 16 16 16 16 16 15 15 15 15 15 15 15 15 15 15 15 15 15 16 15 16 16 16 16 16 16 16 16 16 16 16 16 16 16 16 16 17 17 17 17 17
17 17 17 17 16 16 16 16 15 15 15 15 15 15 15 15 15 15 15 15 15 15 15 15 15 15 15 16 16 16 16 16 16 16 16 16 16 16 16 16 17 17 17
17 17 16 17 16 16 16 16 16 16 15 15 15 15 15 15 15 15 15 15 15 15 15 15 15 15 15 15 15 15 16 16 16 15 16 16 16 16 16 16 16 16 16
17 17 16 16 16 16 16 16 16 16 16 16 15 15 15 15 15 15 15 15 15 15 15 15 15 15 15 15 15 15 15 15 15 15 16 16 16 16 16 16 16 16 16
17 17 16 16 16 16 16 16 16 16 16 15 15 15 15 15 15 15 15 15 15 15 15 15 15 15 15 15 15 15 15 15 15 15 15 15 16 16 16 16 16 16 16
17 17 17 16 16 16 16 16 16 16 16 15 15 16 15 15 15 15 15 15 15 15 15 15 15 15 15 15 15 15 15 15 15 15 15 15 15 15 16 16 16 16 16
17 17 17 16 16 16 16 16 16 16 16 15 15 15 15 15 15 15 15 15 15 15 15 15 15 15 15 15 15 15 15 15 15 15 15 15 15 15 15 15 16 16 16
17 17 17 16 16 16 16 16 16 16 16 15 15 15 15 15 15 15 15 15 15 15 15 15 15 15 15 15 15 14 14 14 15 14 15 15 15 15 15 15 15 16 16
17 17 17 16 16 16 16 16 16 16 16 15 15 15 15 15 15 15 15 15 15 15 15 15 15 14 14 14 14 14 14 14 14 14 14 14 15 15 15 15 15 15 15
17 17 17 17 16 16 16 16 16 16 15 15 15 15 15 15 15 15 15 15 15 15 15 15 14 14 14 14 14 14 14 14 14 14 14 14 14 14 14 14 14 14 14
17 17 17 17 16 16 16 16 16 16 15 15 15 15 15 15 15 15 15 15 15 15 15 14 14 14 14 14 14 15 15 14 14 14 14 14 14 14 14 14 14 14 14
17 17 17 17 16 16 16 16 16 16 15 15 15 15 15 15 15 15 15 15 15 15 14 14 14 14 14 14 14 15 15 15 14 14 14 14 14 14 14 14 14 14 14
17 17 17 17 16 16 16 16 16 16 16 15 15 15 15 15 15 15 15 15 15 14 14 14 14 14 14 14 14 14 14 14 15 14 14 14 14 14 14 14 14 14 14
17 17 17 17 16 16 16 16 16 16 15 15 15 15 15 15 15 15 15 15 15 15 14 14 14 14 14 14 14 14 14 14 14 15 14 14 13 13 13 13 13 14 14
17 17 17 17 16 16 16 16 16 15 15 15 15 15 15 15 15 15 15 15 15 14 14 14 14 14 14 14 14 14 14 14 14 14 14 14 14 13 13 13 13 13 13
Wind_Speed
4 5 6 6 8 9 9 9 9 9 9 9 9 9 9 9 8 8 8 8 8 8 8 8 7 8 8 8 8 8 8 7 7 7 7 7 7 6 6 5 3 5 6
6 7 7 7 8 9 9 9 9 9 9 9 9 9 9 9 9 9 9 9 9 8 8 8 8 8 8 8 8 8 8 7 7 6 5 6 7 6 5 5 5 6 6
7 7 9 9 8 8 8 8 9 9 8 8 8 8 8 8 9 9 8 9 9 8 8 8 8 8 8 8 8 8 8 7 7 5 2 4 6 6 5 5 6 6 5
7 7 9 9 8 8 8 9 9 8 8 8 8 8 7 7 8 8 8 8 8 8 8 8 7 8 7 7 7 7 8 7 6 2 3 5 6 8 6 6 6 6 5
8 8 9 8 8 8 8 9 8 8 8 8 8 8 8 7 7 8 8 8 8 8 8 8 7 7 7 7 7 7 7 6 3 3 6 6 7 8 7 6 6 5 5
8 8 9 7 7 8 8 8 8 8 8 8 8 7 7 7 7 7 7 7 7 7 8 8 7 7 8 8 8 7 6 4 1 5 6 6 7 8 7 6 6 5 5
8 7 8 7 7 8 8 8 8 8 8 8 8 7 7 7 7 7 7 7 7 7 7 8 8 8 8 8 8 7 6 3 4 5 5 6 7 8 7 7 6 5 5
7 7 8 9 8 8 8 8 8 9 8 8 8 8 7 7 7 7 7 7 7 7 7 7 8 8 8 8 8 8 6 3 5 6 6 7 8 7 7 6 6 6 5
6 6 6 7 8 8 8 8 8 8 8 8 8 8 8 8 7 7 7 7 7 7 7 7 8 8 8 8 8 7 6 5 5 5 6 7 8 8 7 6 6 6 6
6 6 6 6 6 7 8 8 7 8 8 8 9 8 6 7 7 6 6 7 7 7 8 8 8 8 9 9 9 8 4 1 5 6 6 8 8 8 8 8 7 7 6
5 5 5 5 6 6 6 7 6 7 7 5 7 6 3 5 6 6 9 8 8 8 8 8 8 8 7 9 8 5 2 4 5 5 7 9 9 9 9 8 8 7 6
6 5 5 5 5 5 5 5 4 5 5 6 6 6 6 6 7 7 10 9 8 7 8 8 6 5 3 5 6 2 4 5 5 6 8 10 9 9 9 9 8 8 7
5 5 4 4 4 4 4 4 4 4 4 5 6 5 5 5 5 5 5 6 6 5 6 6 4 5 6 5 4 5 6 5 5 6 9 10 9 9 9 9 9 9 8
5 4 4 3 4 4 5 4 3 4 4 5 5 6 5 4 4 5 5 5 5 5 5 5 5 7 7 6 6 6 6 5 5 6 9 11 9 9 9 10 10 9 9
5 4 4 3 3 4 4 3 3 4 4 5 4 4 5 4 4 5 5 5 5 5 5 5 6 6 6 6 7 7 7 7 7 7 8 11 11 11 11 11 10 10 10
4 4 4 3 3 3 3 2 3 3 3 4 4 5 5 5 5 4 5 5 5 5 5 5 6 5 6 6 7 7 7 7 7 7 7 9 12 13 13 12 12 11 11
4 4 4 3 3 3 3 3 3 2 3 3 4 4 5 5 5 5 4 4 5 5 6 5 6 6 6 6 7 7 8 8 8 9 8 8 9 13 14 14 13 13 12
4 4 4 3 3 3 2 2 3 3 3 4 4 4 4 5 5 5 4 4 5 5 5 4 4 5 6 6 7 7 7 7 9 9 9 9 9 9 12 14 15 15 14
5 5 5 4 3 4 3 3 3 4 4 4 4 4 4 4 4 5 4 4 5 4 4 4 5 5 6 6 7 7 7 7 7 8 9 10 10 10 10 11 13 15 15
5 5 5 5 4 4 3 3 3 4 4 4 4 4 5 4 4 4 4 4 4 4 4 4 5 5 5 5 6 6 6 6 6 7 8 9 9 10 10 10 9 11 14
6 5 6 6 5 4 3 3 3 3 3 3 4 5 5 4 4 4 3 4 3 3 4 4 5 5 4 4 4 4 5 6 6 6 6 7 8 9 10 10 10 9 9
7 6 6 5 5 4 3 2 2 3 3 3 3 4 4 4 3 3 3 3 3 3 4 4 3 3 3 1 1 1 2 3 4 5 5 5 6 7 8 10 10 9 9
8 8 6 6 6 4 4 3 3 3 3 3 3 3 4 4 4 3 3 3 3 3 3 2 2 2 1 1 2 2 1 2 2 3 4 4 5 5 6 8 9 9 9
9 8 7 7 6 5 5 4 3 3 3 3 2 3 4 4 3 3 3 2 2 2 2 2 1 0 0 1 2 3 3 2 1 1 2 3 4 5 6 6 7 8 9
9 8 7 7 6 6 5 4 3 3 3 3 3 4 3 3 3 3 3 3 3 2 2 1 1 1 1 2 2 1 2 1 1 1 1 1 2 4 4 5 6 7 8
8 8 7 7 7 6 5 5 4 4 3 4 3 3 3 3 3 3 3 3 2 2 2 1 1 1 1 2 2 1 1 1 1 1 1 1 1 2 3 4 5 6 7
Wind_Direction
99 91 83 82 85 83 80 80 80 80 78 76 79 78 78 77 74 72 73 75 75 75 78 78 75 76 72 75 78 80 80 77 76 74 74 73 69 70 78 84 98 90 79
102 94 90 88 86 82 79 80 79 79 78 76 76 77 77 77 75 73 72 73 74 72 70 71 72 75 73 76 78 78 77 76 74 73 78 89 80 73 72 73 65 72 76
103 97 98 86 82 80 77 78 78 77 75 76 77 78 76 73 72 71 74 72 70 70 69 69 71 78 78 76 72 73 73 73 70 65 69 85 91 83 72 74 80 82 74
103 96 89 88 80 77 77 80 80 79 79 79 78 77 77 75 73 71 73 72 71 69 69 69 73 78 77 76 74 73 70 67 63 41 73 68 76 79 75 74 78 81 74
104 97 93 87 78 75 72 74 79 82 81 78 76 74 73 74 72 73 73 72 73 70 67 67 72 79 80 79 78 74 69 64 60 50 62 63 67 74 72 73 73 71 69
110 101 94 87 81 77 75 74 76 77 78 79 77 73 71 72 74 76 76 74 73 71 68 66 70 77 83 83 79 75 70 59 66 69 65 65 69 69 66 69 76 69 63
110 101 97 85 80 77 74 75 75 74 75 74 73 71 71 71 72 74 76 76 77 73 70 68 69 74 77 81 77 74 69 36 63 73 70 68 68 63 60 61 68 67 64
106 101 101 98 83 74 70 73 73 72 68 65 67 71 71 70 69 66 72 79 78 74 74 73 73 75 76 76 76 71 58 7 79 70 68 68 64 62 61 57 56 56 58
106 105 101 101 102 96 77 67 68 67 64 62 64 71 70 67 66 63 70 78 79 79 79 77 78 75 75 74 72 71 63 33 57 61 65 66 60 58 60 58 51 49 52
113 107 105 99 91 89 91 75 64 67 65 67 68 70 77 88 82 73 82 83 83 81 80 80 80 77 77 73 69 70 69 64 59 61 57 63 55 56 59 58 53 44 46
115 109 107 100 94 85 81 82 85 86 76 89 90 86 87 74 75 80 71 80 85 80 77 79 80 79 87 87 73 66 65 64 68 54 53 53 54 55 56 55 50 45 42
123 114 109 101 97 94 84 84 74 73 68 63 60 62 64 68 65 71 88 86 85 87 90 82 88 104 98 89 91 87 67 68 64 60 59 52 55 54 52 50 48 47 42
126 122 113 107 100 94 89 75 67 65 67 69 62 68 67 75 81 76 85 98 93 95 87 95 99 75 74 71 69 71 63 60 61 61 60 51 53 53 48 48 47 49 47
124 116 113 109 106 97 89 79 71 71 66 65 61 60 67 67 71 74 75 74 78 79 75 73 73 73 72 72 72 72 71 63 61 64 62 52 51 50 48 44 44 48 48
130 131 121 117 101 99 88 72 78 73 62 73 65 66 70 75 79 83 83 78 74 79 84 78 77 76 73 68 66 67 64 65 61 64 67 56 47 46 48 45 43 47 50
140 131 124 120 111 106 104 96 79 73 84 70 63 67 70 76 79 80 81 76 73 76 77 84 81 77 72 70 68 67 63 62 60 63 64 66 60 52 49 47 45 48 50
142 135 123 119 118 108 95 82 78 76 79 77 68 67 74 77 81 78 77 80 81 87 87 80 80 79 76 75 71 67 66 58 58 58 56 56 64 63 54 49 47 46 49
150 139 128 134 133 121 109 96 84 79 76 78 77 71 76 83 86 86 83 84 90 91 90 88 82 85 80 72 68 63 65 61 57 56 58 58 55 56 60 52 47 45 46
160 154 143 142 143 131 118 105 85 85 81 76 75 70 75 83 89 94 87 93 98 91 89 91 87 85 85 80 76 66 60 59 56 55 56 56 56 51 51 54 52 47 44
168 161 149 147 147 134 130 118 102 89 87 77 71 69 66 75 83 95 101 103 100 96 92 95 98 89 86 87 82 73 63 63 59 54 52 54 52 50 45 43 46 49 46
175 167 157 158 152 139 131 133 112 104 100 89 74 67 72 78 85 94 102 104 101 99 99 109 110 107 97 96 97 91 82 67 60 57 51 51 54 48 46 44 40 36 43
181 175 170 166 162 150 137 132 111 105 104 93 89 78 71 79 83 95 101 108 109 111 117 117 121 111 103 69 48 113 120 108 65 59 58 53 48 48 46 43 41 38 34
187 182 180 176 167 159 148 134 127 121 129 123 108 88 71 77 81 82 92 105 114 124 123 132 141 134 110 89 28 352 1 56 96 83 58 59 55 47 44 40 38 37 35
190 185 183 178 167 159 157 156 150 152 133 120 120 109 99 84 83 86 99 103 114 110 119 131 116 81 14 55 61 25 19 29 334 117 103 72 58 49 42 39 35 35 34
185 184 185 175 166 164 168 164 171 157 134 127 127 118 112 98 83 84 94 99 102 101 103 97 80 7 5 1 7 31 44 32 318 328 79 84 73 56 43 35 33 32 31
180 181 182 175 167 167 173 172 176 162 154 146 145 137 134 121 106 97 95 97 98 94 91 75 75 38 350 360 354 356 345 339 345 356 3 78 54 52 50 40 33 31 30
Height
1548 1548 1547 1547 1547 1547 1546 1546 1546 1546 1546 1545 1545 1545 1545 1545 1545 1544 1544 1544 1544 1543 1543 1543 1543 1543 1543 1543 1543 1543 1543 1544 1543 1543 1543 1543 1543 1543 1543 1543 1544 1544 1543
1549 1549 1548 1548 1548 1548 1548 1548 1547 1547 1547 1546 1546 1546 1546 1546 1546 1546 1545 1545 1545 1545 1544 1544 1544 1544 1544 1544 1544 1544 1544 1544 1544 1544 1544 1544 1544 1544 1544 1544 1544 1544 1544
1550 1550 1550 1549 1549 1549 1549 1549 1548 1548 1548 1547 1547 1547 1547 1547 1547 1547 1547 1546 1546 1546 1546 1545 1545 1545 1545 1545 1545 1545 1545 1546 1546 1546 1546 1546 1545 1545 1545 1545 1545 1545 1545
1551 1551 1551 1550 1550 1550 1550 1550 1549 1549 1549 1549 1548 1548 1548 1548 1548 1548 1548 1547 1547 1547 1547 1547 1547 1546 1547 1547 1547 1547 1546 1546 1547 1547 1547 1547 1547 1546 1546 1546 1546 1545 1545
1552 1553 1552 1552 1552 1551 1551 1551 1550 1550 1550 1550 1550 1549 1549 1549 1549 1549 1548 1548 1548 1548 1548 1548 1548 1548 1548 1548 1548 1548 1548 1548 1548 1548 1548 1547 1547 1547 1547 1546 1546 1546 1546
1554 1554 1554 1553 1553 1553 1553 1552 1552 1552 1551 1551 1551 1551 1550 1550 1550 1549 1549 1549 1549 1549 1549 1549 1549 1549 1549 1549 1549 1549 1549 1549 1550 1550 1549 1549 1548 1548 1548 1548 1547 1547 1547
1556 1556 1555 1554 1555 1554 1554 1554 1554 1553 1553 1553 1552 1552 1552 1551 1551 1551 1551 1550 1550 1550 1550 1550 1550 1550 1550 1550 1550 1550 1550 1550 1551 1551 1550 1550 1549 1549 1549 1548 1548 1548 1547
1557 1557 1557 1556 1556 1556 1556 1556 1555 1555 1555 1554 1554 1553 1553 1553 1552 1552 1552 1552 1552 1551 1551 1551 1551 1551 1551 1551 1551 1551 1551 1552 1553 1553 1552 1551 1550 1550 1549 1549 1549 1549 1548
1558 1559 1559 1560 1559 1558 1558 1557 1557 1557 1556 1556 1555 1555 1555 1554 1554 1554 1553 1553 1553 1553 1553 1553 1553 1553 1553 1553 1553 1553 1553 1553 1554 1554 1554 1553 1551 1551 1550 1550 1549 1549 1548
1560 1560 1561 1561 1561 1561 1561 1559 1559 1559 1558 1557 1557 1557 1556 1556 1556 1555 1555 1555 1554 1554 1554 1554 1554 1554 1554 1554 1554 1554 1554 1555 1555 1555 1555 1554 1553 1552 1551 1551 1550 1550 1549
1562 1562 1562 1563 1563 1562 1562 1561 1561 1561 1560 1559 1559 1558 1558 1559 1558 1558 1557 1556 1556 1556 1556 1555 1555 1555 1555 1555 1555 1555 1556 1557 1556 1556 1555 1554 1554 1553 1552 1552 1551 1550 1549
1563 1563 1564 1564 1564 1564 1563 1563 1563 1563 1562 1562 1561 1561 1561 1560 1559 1559 1558 1558 1558 1558 1557 1557 1556 1556 1557 1557 1557 1557 1558 1557 1557 1557 1556 1555 1555 1554 1553 1552 1551 1550 1549
1564 1564 1564 1565 1565 1565 1565 1564 1564 1564 1563 1563 1563 1562 1562 1562 1561 1561 1561 1560 1560 1560 1560 1559 1559 1559 1558 1558 1558 1558 1558 1558 1558 1558 1557 1556 1555 1554 1554 1553 1552 1551 1550
1564 1565 1565 1565 1566 1566 1566 1566 1565 1565 1565 1565 1564 1564 1564 1563 1563 1563 1562 1562 1562 1561 1561 1561 1560 1560 1560 1560 1560 1559 1559 1559 1559 1559 1558 1557 1556 1555 1555 1554 1553 1552 1551
1564 1565 1566 1566 1567 1567 1567 1566 1567 1566 1566 1566 1565 1566 1565 1565 1564 1564 1564 1563 1563 1563 1562 1562 1562 1561 1561 1561 1561 1560 1560 1560 1560 1560 1559 1558 1557 1556 1556 1555 1554 1553 1552
1565 1566 1566 1567 1567 1567 1568 1568 1568 1568 1567 1567 1567 1567 1567 1566 1566 1565 1565 1564 1564 1564 1564 1564 1563 1563 1563 1562 1562 1561 1561 1561 1561 1561 1560 1559 1558 1557 1557 1556 1554 1554 1553
1566 1567 1567 1567 1568 1568 1569 1569 1569 1569 1569 1569 1568 1568 1568 1567 1567 1567 1567 1566 1566 1565 1565 1565 1565 1564 1564 1563 1563 1563 1562 1562 1562 1562 1561 1561 1560 1559 1558 1557 1556 1555 1554
1566 1567 1567 1568 1568 1569 1569 1569 1570 1570 1569 1569 1569 1569 1569 1569 1569 1568 1568 1567 1567 1567 1567 1566 1566 1566 1565 1565 1565 1565 1564 1564 1564 1563 1563 1563 1562 1561 1560 1559 1557 1556 1555
1566 1567 1568 1568 1569 1570 1570 1570 1570 1570 1570 1570 1570 1570 1570 1570 1570 1570 1569 1569 1569 1569 1569 1568 1568 1568 1567 1567 1567 1566 1566 1566 1565 1565 1565 1564 1563 1562 1562 1560 1559 1558 1556
1567 1568 1568 1569 1570 1570 1571 1571 1571 1571 1571 1571 1571 1571 1570 1571 1571 1571 1570 1570 1570 1570 1570 1570 1569 1569 1569 1569 1569 1568 1568 1568 1567 1567 1566 1566 1565 1564 1563 1562 1561 1559 1558
1566 1568 1569 1570 1570 1571 1571 1572 1572 1572 1572 1572 1572 1572 1571 1571 1571 1572 1572 1572 1571 1571 1571 1571 1571 1571 1570 1570 1571 1571 1571 1570 1569 1568 1568 1568 1567 1565 1565 1563 1562 1561 1560
1566 1567 1568 1570 1570 1571 1571 1572 1572 1572 1573 1573 1573 1572 1572 1572 1572 1573 1573 1573 1572 1572 1572 1572 1572 1572 1572 1572 1573 1572 1573 1573 1571 1570 1570 1569 1568 1567 1566 1565 1563 1562 1561
1564 1566 1568 1569 1570 1571 1571 1572 1572 1573 1573 1574 1574 1573 1573 1573 1573 1573 1573 1573 1573 1573 1573 1573 1573 1573 1573 1573 1573 1574 1573 1573 1573 1573 1571 1570 1569 1568 1567 1566 1565 1563 1562
1563 1565 1567 1568 1570 1570 1571 1572 1573 1573 1574 1574 1575 1574 1574 1574 1574 1574 1574 1574 1574 1574 1574 1574 1574 1574 1574 1574 1574 1573 1574 1573 1574 1573 1573 1572 1570 1569 1568 1567 1566 1564 1563
1562 1564 1566 1567 1568 1570 1571 1572 1573 1574 1574 1575 1575 1575 1575 1575 1575 1575 1575 1575 1575 1575 1575 1575 1575 1575 1575 1575 1575 1574 1574 1573 1574 1574 1574 1573 1572 1571 1569 1568 1567 1565 1564
1560 1562 1564 1566 1567 1569 1570 1571 1572 1573 1574 1575 1575 1576 1576 1576 1576 1576 1576 1576 1576 1576 1576 1576 1575 1575 1575 1575 1574 1574 1574 1574 1574 1574 1573 1573 1572 1571 1570 1568 1567 1566 1564